Molokai, HI

10:13 PM HST on July 24, 2017 (GMT -1000)
Molokai

Weather History for PHMK - May, 2014

Change the Weather History Date:

Thursday, May 1, 2014

  Actual Average Record
Temperature  
Mean Temperature 70 °F -  
Max Temperature 75 °F 80 °F 85 °F (1990)
Min Temperature 66 °F 66 °F 57 °F (1986)
Cooling Degree Days 6    
Growing Degree Days 20 (Base 50)    
Moisture  
Dew Point 66 °F    
Average Humidity 83    
Maximum Humidity 97    
Minimum Humidity 69    
Precipitation  
Precipitation 0.00 in - - ()
Sea Level Pressure  
Sea Level Pressure 30.03 in    
Wind  
Wind Speed 11 mph (NNE)    
Max Wind Speed 20 mph    
Max Gust Speed 31 mph    
Visibility 10 miles    
Events      
Averages and records for this station are not official NWS values.
T = Trace of Precipitation, MM = Missing Value Source: NWS Daily Summary

Daily Weather History Graph

Daily Weather History Graph

Search for Another Location

Airport or City:

Trip Planner

Search our weather history database for the weather conditions in past years. The results will help you decide how hot, cold, wet, or windy it might be!

Date:

Astronomy

May. 01, 2014 Rise Set
Actual Time 5:57 AM HST 6:53 PM HST
Civil Twilight 5:34 AM HST 7:16 PM HST
Nautical Twilight 5:06 AM HST 7:44 PM HST
Astronomical Twilight 4:38 AM HST 8:12 PM HST
Moon 8:01 AM HST (5/1) 9:28 PM HST (5/1)
Length of Visible Light 13h 42m
Length of Day
12h 55m
Waxing Crescent, 8% of the Moon is Illuminated
May 1
Waxing Crescent
May 6
First Quarter
May 14
Full
May 21
Last Quarter
May 28
New

Hourly Weather History & Observations

Time (HST) Temp. Dew Point Humidity Pressure Visibility Wind Dir Wind Speed Gust Speed Precip Events Conditions
12:54 AM 68.0 °F 66.0 °F 93% 30.05 in 10.0 mi NNE 9.2 mph - N/A   Mostly Cloudy
1:54 AM 68.0 °F 64.9 °F 90% 30.02 in 10.0 mi NNE 11.5 mph - N/A   Partly Cloudy
2:54 AM 68.0 °F 66.0 °F 93% 30.01 in 10.0 mi NE 11.5 mph 18.4 mph N/A   Partly Cloudy
3:54 AM 68.0 °F 66.0 °F 93% 30.01 in 10.0 mi NNE 9.2 mph 19.6 mph N/A   Clear
4:54 AM 68.0 °F 66.0 °F 93% 30.01 in 10.0 mi NNE 13.8 mph - N/A   Clear
5:54 AM 66.9 °F 66.0 °F 97% 30.02 in 10.0 mi NNE 13.8 mph 21.9 mph N/A   Clear
6:54 AM 68.0 °F 66.0 °F 93% 30.04 in 10.0 mi NE 10.4 mph 26.5 mph N/A   Clear
7:54 AM 71.1 °F 64.9 °F 81% 30.04 in 10.0 mi NNE 15.0 mph 24.2 mph N/A   Partly Cloudy
8:54 AM 73.0 °F 64.0 °F 73% 30.04 in 10.0 mi NNE 19.6 mph 28.8 mph N/A   Partly Cloudy
9:54 AM 75.0 °F 64.9 °F 71% 30.05 in 10.0 mi NE 16.1 mph 25.3 mph N/A   Scattered Clouds
10:54 AM 75.0 °F 64.9 °F 71% 30.05 in 10.0 mi NNE 18.4 mph 28.8 mph N/A   Scattered Clouds
11:54 AM 75.9 °F 66.0 °F 71% 30.03 in 10.0 mi NE 16.1 mph 28.8 mph N/A   Scattered Clouds
12:54 PM 75.0 °F 64.9 °F 71% 30.03 in 10.0 mi NE 18.4 mph 31.1 mph N/A   Partly Cloudy
1:54 PM 75.9 °F 64.9 °F 69% 30.01 in 10.0 mi NE 17.3 mph 27.6 mph N/A   Partly Cloudy
2:54 PM 75.9 °F 66.0 °F 71% 29.99 in 10.0 mi NE 16.1 mph 26.5 mph N/A   Partly Cloudy
3:54 PM 75.0 °F 66.0 °F 73% 29.99 in 10.0 mi NE 13.8 mph 19.6 mph N/A   Scattered Clouds
4:54 PM 75.0 °F 68.0 °F 79% 29.99 in 10.0 mi NE 11.5 mph - N/A   Scattered Clouds
5:54 PM 73.9 °F 66.9 °F 79% 30.01 in 10.0 mi NNE 8.1 mph - N/A   Scattered Clouds
6:54 PM 73.0 °F 66.9 °F 81% 30.02 in 10.0 mi NNE 6.9 mph - N/A   Overcast
7:54 PM 72.0 °F 66.9 °F 84% 30.04 in 10.0 mi NNE 5.8 mph - N/A   Overcast
8:54 PM 72.0 °F 66.9 °F 84% 30.06 in 10.0 mi ENE 3.5 mph - N/A   Overcast
9:54 PM 70.0 °F 66.9 °F 90% 30.06 in 10.0 mi Calm Calm - N/A   Mostly Cloudy
10:54 PM 68.0 °F 66.0 °F 93% 30.06 in 10.0 mi North 3.5 mph - N/A   Clear
11:54 PM 66.0 °F 64.9 °F 96% 30.05 in 10.0 mi Calm Calm - N/A   Clear